International Falls, MN

1:59 AM CDT on May 26, 2017 (GMT -0500)
Falls International

Weather History for KINL - January, 2013

Change the Weather History Date:

Friday, January 18, 2013

  Actual Average Record
Temperature  
Mean Temperature 0 °F 4 °F  
Max Temperature 13 °F 15 °F 39 °F (1898)
Min Temperature -13 °F -7 °F -40 °F (1950)
Degree Days  
Heating Degree Days 65 61  
Month to date heating degree days 970 1094  
Since 1 July heating degree days 5101 5269  
Cooling Degree Days 0 0  
Month to date cooling degree days 0 0  
Year to date cooling degree days 0 0  
Moisture  
Dew Point 0 °F    
Average Humidity 80    
Maximum Humidity 87    
Minimum Humidity 73    
Precipitation  
Precipitation 0.10 in 0.02 in 0.47 in (1996)
Month to date precipitation 1.14 0.40  
Year to date precipitation 1.14 0.40  
Snow  
Snow 2.90 in 0.50 in 7.80 in (1996)
Month to date snowfall 9.3 9.4  
Since 1 July snowfall 34.6 40.4  
Snow Depth 11.00 in    
Sea Level Pressure  
Sea Level Pressure 29.92 in    
Wind  
Wind Speed 5 mph (East)    
Max Wind Speed 12 mph    
Max Gust Speed 15 mph    
Visibility 5 miles    
Events Snow    
T = Trace of Precipitation, MM = Missing Value Source: NWS Daily Summary

Daily Weather History Graph

Daily Weather History Graph

Search for Another Location

Airport or City:

Trip Planner

Search our weather history database for the weather conditions in past years. The results will help you decide how hot, cold, wet, or windy it might be!

Date:

Astronomy

Jan. 18, 2013 Rise Set
Actual Time 7:58 AM CST 4:50 PM CST
Civil Twilight 7:22 AM CST 5:25 PM CST
Nautical Twilight 6:44 AM CST 6:04 PM CST
Astronomical Twilight 6:06 AM CST 6:42 PM CST
Moon 10:55 AM CST (1/18) 12:20 AM CST (1/18)
Length of Visible Light 10h 03m
Length of Day
8h 52m
Waxing Crescent, 47% of the Moon is Illuminated
Jan 18
Waxing Crescent
Jan 18
First Quarter
Jan 26
Full
Feb 3
Last Quarter
Feb 10
New

Hourly Weather History & Observations

Time (CST) Temp. Windchill Dew Point Humidity Pressure Visibility Wind Dir Wind Speed Gust Speed Precip Events Conditions
12:55 AM -11.0 °F -22.8 °F -15.0 °F 83% 30.28 in 10.0 mi SE 4.6 mph - N/A   Mostly Cloudy
1:55 AM -9.0 °F -18.2 °F -13.0 °F 83% 30.25 in 10.0 mi ESE 3.5 mph - N/A   Overcast
2:55 AM -7.1 °F -18.1 °F -11.9 °F 79% 30.23 in 10.0 mi SE 4.6 mph - N/A   Overcast
3:55 AM -5.1 °F -15.8 °F -9.9 °F 80% 30.19 in 3.0 mi SE 4.6 mph - 0.00 in Snow Light Snow
4:37 AM -2.2 °F -16.8 °F -7.6 °F 78% 30.03 in 2.0 mi ESE 8.1 mph - 0.00 in Snow Light Snow
4:55 AM -2.9 °F -17.7 °F -8.0 °F 79% 30.13 in 4.0 mi ESE 8.1 mph - 0.01 in Snow Light Snow
5:39 AM -2.2 °F -16.8 °F -7.6 °F 78% 29.98 in 1.8 mi East 8.1 mph - 0.00 in Snow Light Snow
5:55 AM -0.9 °F -14.1 °F -6.0 °F 79% 30.08 in 2.0 mi East 6.9 mph - 0.00 in Snow Light Snow
6:06 AM -0.4 °F -13.4 °F -5.8 °F 78% 29.97 in 1.5 mi East 6.9 mph - 0.01 in Snow Light Snow
6:31 AM -0.4 °F -15.7 °F -5.8 °F 78% 29.94 in 0.8 mi ESE 9.2 mph - 0.02 in Snow Light Snow
6:42 AM -0.4 °F -14.7 °F -5.8 °F 78% 29.93 in 1.0 mi ESE 8.1 mph - 0.03 in Snow Light Snow
6:55 AM -0.0 °F -14.2 °F -5.1 °F 79% 30.05 in 1.2 mi ESE 8.1 mph - 0.04 in Snow Light Snow
7:11 AM -0.4 °F -14.7 °F -5.8 °F 78% 29.91 in 2.0 mi East 8.1 mph - 0.00 in Snow Light Snow
7:20 AM -0.4 °F -13.4 °F -4.0 °F 85% 29.91 in 6.0 mi East 6.9 mph - 0.00 in Snow Light Snow
7:55 AM 1.0 °F -10.3 °F -4.0 °F 79% 30.03 in 7.0 mi East 5.8 mph - 0.01 in Snow Light Snow
8:24 AM 1.4 °F -11.3 °F -2.2 °F 85% 29.90 in 2.0 mi East 6.9 mph - 0.00 in Snow Light Snow
8:50 AM 1.4 °F -12.5 °F -2.2 °F 85% 29.88 in 1.5 mi East 8.1 mph - 0.00 in Snow Light Snow
8:55 AM 1.9 °F -11.8 °F -2.9 °F 80% 30.00 in 2.0 mi East 8.1 mph - 0.00 in Snow Light Snow
9:14 AM 1.4 °F -13.5 °F -2.2 °F 85% 29.88 in 4.0 mi East 9.2 mph - 0.00 in Snow Light Snow
9:53 AM 3.2 °F -10.3 °F -0.4 °F 85% 29.87 in 2.5 mi ENE 8.1 mph - 0.00 in Snow Light Snow
9:55 AM 3.0 °F -10.5 °F -0.9 °F 84% 29.99 in 2.0 mi East 8.1 mph - 0.00 in Snow Light Snow
10:07 AM 3.2 °F -7.8 °F -0.4 °F 85% 29.87 in 1.2 mi ENE 5.8 mph - 0.01 in Snow Light Snow
10:31 AM 3.2 °F -9.1 °F -0.4 °F 85% 29.86 in 1.5 mi East 6.9 mph - 0.01 in Snow Light Snow
10:55 AM 3.9 °F -8.2 °F -0.0 °F 84% 29.97 in 1.2 mi East 6.9 mph - 0.01 in Snow Light Snow
11:13 AM 5.0 °F -6.9 °F -0.4 °F 78% 29.83 in 2.5 mi East 6.9 mph - 0.01 in Snow Light Snow
11:20 AM 5.0 °F -5.6 °F 1.4 °F 85% 29.82 in 5.0 mi East 5.8 mph - 0.01 in Snow Light Snow
11:55 AM 6.1 °F -2.8 °F 1.0 °F 80% 29.91 in 5.0 mi East 4.6 mph - 0.01 in Snow Light Snow
12:55 PM 8.1 °F -0.5 °F 3.9 °F 83% 29.86 in 8.0 mi East 4.6 mph - 0.00 in   Overcast
1:11 PM 8.6 °F -1.3 °F 3.2 °F 79% 29.76 in 2.5 mi ENE 5.8 mph - N/A   Haze
1:19 PM 8.6 °F -2.6 °F 3.2 °F 79% 29.76 in 7.0 mi ENE 6.9 mph - N/A   Overcast
1:55 PM 10.0 °F 0.4 °F 3.9 °F 76% 29.86 in 7.0 mi ENE 5.8 mph - N/A   Overcast
2:55 PM 10.0 °F 1.8 °F 5.0 °F 80% 29.83 in 10.0 mi East 4.6 mph - N/A   Overcast
3:55 PM 10.9 °F 4.7 °F 6.1 °F 81% 29.84 in 8.0 mi ENE 3.5 mph - N/A   Overcast
4:55 PM 10.9 °F 2.9 °F 7.0 °F 84% 29.86 in 10.0 mi ENE 4.6 mph - N/A   Overcast
5:55 PM 12.0 °F 4.1 °F 8.1 °F 84% 29.86 in 10.0 mi NNE 4.6 mph - N/A   Overcast
6:36 PM 12.2 °F 4.3 °F 8.6 °F 85% 29.76 in 10.0 mi ENE 4.6 mph - N/A   Overcast
6:55 PM 12.0 °F 4.1 °F 8.1 °F 84% 29.86 in 10.0 mi ENE 4.6 mph - N/A   Overcast
7:55 PM 12.0 °F 2.7 °F 8.1 °F 84% 29.84 in 4.0 mi East 5.8 mph - 0.00 in Snow Light Snow
8:11 PM 12.2 °F 4.3 °F 8.6 °F 85% 29.75 in 1.8 mi East 4.6 mph - 0.01 in Snow Light Snow
8:38 PM 12.2 °F - 8.6 °F 85% 29.75 in 2.5 mi Calm Calm - 0.01 in Snow Light Snow
8:55 PM 12.0 °F 4.1 °F 9.0 °F 88% 29.83 in 2.0 mi East 4.6 mph - 0.02 in Snow Light Snow
9:15 PM 12.2 °F 6.1 °F 8.6 °F 85% 29.74 in 3.0 mi East 3.5 mph - 0.00 in Snow Light Snow
9:55 PM 12.0 °F - 8.1 °F 84% 29.84 in 6.0 mi Calm Calm - 0.00 in Snow Light Snow
10:55 PM 12.0 °F 2.7 °F 9.0 °F 88% 29.80 in 10.0 mi East 5.8 mph - 0.00 in   Overcast
11:55 PM 12.0 °F 5.9 °F 9.0 °F 88% 29.79 in 10.0 mi East 3.5 mph - N/A   Overcast